Regional Weather Roundup
Issued by NWS

Home | Current Version | Previous Version | Graphics & Text | Print | Product List | Glossary On
Versions: 1 2 3 4 5 6 7 8 9 10 11 12 13 14 15 16 17 18 19 20 21 22 23 24 25 26 27 28 29 30 31 32 33 34 35 36 37 38 39 40 41 42 43 44 45 46 47 48 49 50
000
ASUS45 KBOI 202110
RWRID
WEATHER ROUNDUP FOR IDAHO
NATIONAL WEATHER SERVICE BOISE ID
200 PM MST SAT DEC 20 2014

NOTE: "FAIR" INDICATES FEW OR NO CLOUDS BELOW 12000 FEET
WITH NO SIGNIFICANT WEATHER AND/OR OBSTRUCTIONS TO VISIBILITY

IDZ012-014-202200-
SOUTHWEST IDAHO


CITY           SKY/WX    TMP DP  RH WIND       PRES   REMARKS
BOISE          LGT RAIN  44  37  76 SE14      29.96S
CALDWELL       CLOUDY    45  36  70 E9        29.97S
MOUNTAIN HOME  CLOUDY    43  39  85 E14       29.97F
$$

IDZ016-017-202200-
SOUTHCENTRAL IDAHO


CITY           SKY/WX    TMP DP  RH WIND       PRES   REMARKS
BURLEY         CLOUDY    42  35  76 S15       29.98F
JEROME         CLOUDY    41  36  82 SE5       29.99F
TWIN FALLS     CLOUDY    46  35  65 S15       29.98F
$$

IDZ019>023-202200-
SOUTHEAST IDAHO


CITY           SKY/WX    TMP DP  RH WIND       PRES   REMARKS
IDAHO FALLS    CLOUDY    36  34  92 SW12      29.99F WCI  28
POCATELLO      PTSUNNY   41  35  79 S15       30.01S
REXBURG        FLURRIES  34  34 100 SW12      29.97F WCI  25
$$

IDZ006-010-011-018-031-032-202200-
CENTRAL IDAHO MOUNTAINS


CITY           SKY/WX    TMP DP  RH WIND       PRES   REMARKS
MCCALL         CLOUDY    33  32  96 SE6       29.87F WCI  28
HAILEY         CLOUDY    32  32 100 SE5       30.00S FOG     WCI  27
STANLEY          N/A     34  27  75 SE9       29.91S WCI  27
SALMON         CLOUDY    34  28  80 N5        29.90S WCI  30
CHALLIS        CLOUDY    33  25  72 CALM      29.90F
$$

IDZ002-004-006-007-026-202200-
NORTHERN IDAHO


CITY           SKY/WX    TMP DP  RH WIND       PRES   REMARKS
LEWISTON       LGT RAIN  45  39  79 SE7       29.79F
LOWELL           N/A     43  37  79 N5        29.86F
COEUR D`ALENE  CLOUDY    39  36  87 CALM      29.77F
MULLAN PASS    SNOW      30  27  88 VRB5      29.71F VSB 1/4 WCI  25
$$


USA.gov is the U.S. government's official web portal to all federal, state and local government web resources and services.